| time (UTC) | temp F | wind direction | speed MPH | gust MPH | rain 1hr in | rain 24hr in | rain mn in | humidity % | barometer mb |
| 20260901143205 | 66 | 192 | 8.0 | 10.0 | 0.00 | 0.09 | 0.00 | 57 | 1011.6 |
| 20260901142151 | 65 | 184 | 5.0 | 11.0 | 0.00 | 0.09 | 0.00 | 57 | 1011.5 |
| 20260901141213 | 65 | 169 | 8.0 | 14.0 | 0.00 | 0.09 | 0.00 | 59 | 1011.3 |
| 20260901140139 | 65 | 200 | 9.0 | 11.0 | 0.00 | 0.09 | 0.00 | 59 | 1011.3 |
| 20260901135151 | 65 | 210 | 6.0 | 9.0 | 0.00 | 0.09 | 0.00 | 58 | 1011.3 |
| 20260901134215 | 64 | 195 | 5.0 | 10.0 | 0.00 | 0.09 | 0.00 | 59 | 1011.2 |
| 20260901133215 | 64 | 198 | 8.0 | 13.0 | 0.00 | 0.09 | 0.00 | 60 | 1011.2 |
| 20260901132155 | 64 | 192 | 8.0 | 12.0 | 0.00 | 0.09 | 0.00 | 61 | 1010.9 |
| 20260901131158 | 64 | 190 | 7.0 | 18.0 | 0.00 | 0.09 | 0.00 | 61 | 1010.7 |
| 20260901130143 | 63 | 202 | 8.0 | 16.0 | 0.00 | 0.09 | 0.00 | 64 | 1010.7 |
| 20260901125147 | 62 | 175 | 10.0 | 14.0 | 0.00 | 0.09 | 0.00 | 67 | 1010.5 |
| 20260901124152 | 61 | 197 | 8.0 | 11.0 | 0.00 | 0.09 | 0.00 | 70 | 1010.3 |
| 20260901123142 | 60 | 199 | 6.0 | 9.0 | 0.00 | 0.09 | 0.00 | 74 | 1010.3 |
| 20260901122151 | 59 | 175 | 7.0 | 10.0 | 0.00 | 0.09 | 0.00 | 76 | 1010.2 |
| 20260901121157 | 59 | 168 | 7.0 | 11.0 | 0.00 | 0.09 | 0.00 | 75 | 1010.5 |
| 20260901120141 | 60 | 175 | 7.0 | 10.0 | 0.00 | 0.09 | 0.00 | 74 | 1010.5 |
| 20260901115146 | 60 | 197 | 6.0 | 9.0 | 0.00 | 0.09 | 0.00 | 73 | 1010.6 |
| 20260901114152 | 60 | 200 | 4.0 | 6.0 | 0.00 | 0.09 | 0.00 | 73 | 1010.4 |
| 20260901113153 | 60 | 201 | 2.0 | 5.0 | 0.00 | 0.09 | 0.00 | 73 | 1010.4 |
| 20260901112157 | 60 | 201 | 3.0 | 7.0 | 0.00 | 0.09 | 0.00 | 72 | 1010.5 |
| 20260901111202 | 61 | 200 | 4.0 | 10.0 | 0.00 | 0.09 | 0.00 | 72 | 1010.4 |
| 20260901110144 | 61 | 175 | 8.0 | 12.0 | 0.00 | 0.09 | 0.00 | 72 | 1010.4 |
| 20260901104158 | 60 | 185 | 7.0 | 10.0 | 0.00 | 0.09 | 0.00 | 75 | 1010.7 |
| 20260901103143 | 60 | 150 | 5.0 | 8.0 | 0.00 | 0.09 | 0.00 | 75 | 1010.7 |
| 20260901102202 | 60 | 157 | 4.0 | 7.0 | 0.00 | 0.09 | 0.00 | 76 | 1011.0 |
| 20260901101149 | 59 | 157 | 3.0 | 6.0 | 0.00 | 0.09 | 0.00 | 76 | 1011.2 |
| 20260901100211 | 59 | 159 | 3.0 | 5.0 | 0.00 | 0.09 | 0.00 | 76 | 1011.2 |
| 20260901095154 | 59 | 160 | 4.0 | 7.0 | 0.00 | 0.09 | 0.00 | 77 | 1011.7 |
| 20260901094157 | 59 | 160 | 2.0 | 5.0 | 0.00 | 0.09 | 0.00 | 77 | 1011.5 |
| 20260901093149 | 60 | 160 | 4.0 | 6.0 | 0.00 | 0.09 | 0.00 | 76 | 1011.5 |
| 20260901092152 | 60 | 159 | 4.0 | 6.0 | 0.00 | 0.09 | 0.00 | 76 | 1011.8 |
| 20260901091159 | 60 | 160 | 4.0 | 7.0 | 0.00 | 0.09 | 0.00 | 76 | 1011.8 |
| 20260901090141 | 60 | 162 | 6.0 | 8.0 | 0.00 | 0.09 | 0.00 | 76 | 1011.8 |
| 20260901085144 | 60 | 165 | 4.0 | 6.0 | 0.00 | 0.09 | 0.00 | 77 | 1011.8 |
| 20260901084149 | 60 | 165 | 3.0 | 6.0 | 0.00 | 0.09 | 0.00 | 78 | 1011.9 |
| 20260901083156 | 60 | 165 | 3.0 | 5.0 | 0.00 | 0.09 | 0.00 | 78 | 1011.9 |
| 20260901082144 | 60 | 165 | 3.0 | 4.0 | 0.00 | 0.09 | 0.00 | 79 | 1012.1 |
| 20260901081151 | 59 | 165 | 1.0 | 2.0 | 0.00 | 0.09 | 0.00 | 80 | 1012.3 |
| 20260901080156 | 60 | 165 | 0.0 | 3.0 | 0.00 | 0.09 | 0.00 | 80 | 1012.3 |
| 20260901075200 | 60 | 165 | 0.0 | 4.0 | 0.00 | 0.09 | 0.00 | 80 | 1012.4 |
| 20260901074206 | 60 | 165 | 1.0 | 4.0 | 0.00 | 0.09 | 0.00 | 79 | 1012.5 |
| 20260901073205 | 60 | 165 | 0.0 | 3.0 | 0.00 | 0.09 | 0.00 | 80 | 1012.5 |
| 20260901072146 | 60 | 165 | 1.0 | 5.0 | 0.00 | 0.09 | 0.00 | 80 | 1012.5 |
| 20260901071205 | 60 | 165 | 3.0 | 5.0 | 0.00 | 0.09 | 0.00 | 80 | 1012.4 |
| 20260901070147 | 60 | 165 | 2.0 | 5.0 | 0.00 | 0.09 | 0.00 | 81 | 1012.4 |
| 20260901065154 | 59 | 165 | 3.0 | 4.0 | 0.00 | 0.09 | 0.00 | 83 | 1012.4 |
| 20260901064213 | 59 | 165 | 1.0 | 2.0 | 0.00 | 0.09 | 0.00 | 84 | 1012.4 |
| 20260901063155 | 60 | 165 | 0.0 | 4.0 | 0.00 | 0.09 | 0.00 | 84 | 1012.4 |
| 20260901062220 | 59 | 165 | 0.0 | 3.0 | 0.00 | 0.09 | 0.00 | 85 | 1012.4 |
| 20260901061144 | 59 | 165 | 1.0 | 4.0 | 0.00 | 0.09 | 0.00 | 85 | 1012.5 |
| 20260901060200 | 59 | 165 | 4.0 | 7.0 | 0.00 | 0.09 | 0.00 | 85 | 1012.5 |
| 20260901055153 | 60 | 159 | 4.0 | 7.0 | 0.00 | 0.09 | 0.09 | 84 | 1012.9 |
| 20260901054158 | 60 | 159 | 5.0 | 8.0 | 0.00 | 0.09 | 0.09 | 82 | 1013.0 |
| 20260901053141 | 60 | 165 | 4.0 | 7.0 | 0.00 | 0.09 | 0.09 | 84 | 1013.0 |
| 20260901052146 | 60 | 172 | 2.0 | 6.0 | 0.00 | 0.09 | 0.09 | 83 | 1012.6 |
| 20260901051149 | 60 | 201 | 3.0 | 7.0 | 0.00 | 0.09 | 0.09 | 85 | 1012.5 |
| 20260901050148 | 60 | 200 | 3.0 | 6.0 | 0.00 | 0.09 | 0.09 | 86 | 1012.5 |
| 20260901045157 | 60 | 194 | 4.0 | 6.0 | 0.00 | 0.09 | 0.09 | 86 | 1012.4 |
| 20260901044139 | 60 | 215 | 4.0 | 5.0 | 0.00 | 0.09 | 0.09 | 86 | 1012.4 |
| 20260901043146 | 60 | 242 | 1.0 | 6.0 | 0.00 | 0.09 | 0.09 | 87 | 1012.4 |
| 20260901042147 | 60 | 242 | 2.0 | 4.0 | 0.00 | 0.09 | 0.09 | 87 | 1012.4 |
| 20260901041211 | 60 | 236 | 1.0 | 8.0 | 0.00 | 0.09 | 0.09 | 87 | 1012.6 |
| 20260901040154 | 60 | 262 | 3.0 | 5.0 | 0.00 | 0.09 | 0.09 | 87 | 1012.6 |
| 20260901035150 | 61 | 265 | 2.0 | 4.0 | 0.00 | 0.09 | 0.09 | 86 | 1012.6 |
| 20260901034152 | 61 | 278 | 0.0 | 4.0 | 0.00 | 0.09 | 0.09 | 85 | 1012.9 |
| 20260901033155 | 61 | 277 | 1.0 | 5.0 | 0.00 | 0.09 | 0.09 | 84 | 1012.9 |
| 20260901032159 | 61 | 268 | 1.0 | 5.0 | 0.02 | 0.09 | 0.09 | 83 | 1013.0 |
| 20260901031148 | 61 | 265 | 3.0 | 6.0 | 0.04 | 0.09 | 0.09 | 83 | 1013.1 |
| 20260901030155 | 61 | 261 | 5.0 | 6.0 | 0.09 | 0.09 | 0.09 | 85 | 1013.1 |
| 20260901025159 | 61 | 325 | 1.0 | 5.0 | 0.09 | 0.09 | 0.09 | 84 | 1013.0 |
| 20260901024204 | 61 | 289 | 3.0 | 13.0 | 0.09 | 0.09 | 0.09 | 84 | 1013.1 |
| 20260901023145 | 61 | 290 | 7.0 | 15.0 | 0.09 | 0.09 | 0.09 | 84 | 1013.1 |
| 20260901022146 | 62 | 261 | 6.0 | 16.0 | 0.07 | 0.07 | 0.07 | 83 | 1013.8 |
| 20260901021151 | 64 | 232 | 9.0 | 21.0 | 0.05 | 0.05 | 0.05 | 77 | 1011.8 |
| 20260901020216 | 69 | 306 | 19.0 | 38.0 | 0.00 | 0.00 | 0.00 | 57 | 1011.8 |
| 20260901015155 | 74 | 280 | 15.0 | 26.0 | 0.00 | 0.00 | 0.00 | 44 | 1010.6 |
| 20260901014216 | 77 | 93 | 3.0 | 13.0 | 0.00 | 0.00 | 0.00 | 35 | 1010.0 |
| 20260901013218 | 77 | 71 | 6.0 | 11.0 | 0.00 | 0.00 | 0.00 | 33 | 1010.0 |
| 20260901012158 | 77 | 71 | 4.0 | 8.0 | 0.00 | 0.00 | 0.00 | 31 | 1009.9 |
| 20260901011142 | 78 | 71 | 4.0 | 12.0 | 0.00 | 0.00 | 0.00 | 29 | 1009.9 |
| 20260901010153 | 79 | 87 | 5.0 | 11.0 | 0.00 | 0.00 | 0.00 | 28 | 1009.9 |
| 20260901005154 | 79 | 82 | 5.0 | 13.0 | 0.00 | 0.00 | 0.00 | 28 | 1009.9 |
| 20260901004159 | 80 | 98 | 5.0 | 11.0 | 0.00 | 0.00 | 0.00 | 27 | 1009.9 |
| 20260901003149 | 81 | 95 | 3.0 | 10.0 | 0.00 | 0.00 | 0.00 | 27 | 1009.9 |
| 20260901002208 | 81 | 119 | 2.0 | 15.0 | 0.00 | 0.00 | 0.00 | 25 | 1009.9 |
| 20260901001151 | 82 | 107 | 2.0 | 10.0 | 0.00 | 0.00 | 0.00 | 24 | 1010.0 |
| 20260901000155 | 83 | 96 | 5.0 | 15.0 | 0.00 | 0.00 | 0.00 | 23 | 1010.0 |
| 20260831235156 | 83 | 111 | 4.0 | 10.0 | 0.00 | 0.00 | 0.00 | 23 | 1010.0 |
| 20260831234159 | 82 | 92 | 5.0 | 10.0 | 0.00 | 0.00 | 0.00 | 23 | 1010.0 |
| 20260831233146 | 84 | 153 | 5.0 | 13.0 | 0.00 | 0.00 | 0.00 | 22 | 1010.0 |
| 20260831232148 | 87 | 109 | 5.0 | 11.0 | 0.00 | 0.00 | 0.00 | 20 | 1010.0 |
| 20260831231152 | 87 | 160 | 4.0 | 10.0 | 0.00 | 0.00 | 0.00 | 20 | 1010.1 |
| 20260831230155 | 85 | 121 | 5.0 | 10.0 | 0.00 | 0.00 | 0.00 | 22 | 1010.1 |
| 20260831225143 | 84 | 126 | 4.0 | 10.0 | 0.00 | 0.01 | 0.00 | 22 | 1010.4 |
| 20260831224200 | 85 | 106 | 3.0 | 11.0 | 0.00 | 0.01 | 0.00 | 22 | 1010.6 |
| 20260831223146 | 86 | 83 | 7.0 | 11.0 | 0.00 | 0.01 | 0.00 | 22 | 1010.6 |
| 20260831222151 | 87 | 102 | 7.0 | 16.0 | 0.00 | 0.01 | 0.00 | 21 | 1010.6 |
| 20260831221154 | 86 | 84 | 5.0 | 12.0 | 0.00 | 0.01 | 0.00 | 21 | 1010.7 |
| 20260831220201 | 86 | 94 | 8.0 | 16.0 | 0.00 | 0.01 | 0.00 | 23 | 1010.7 |
| 20260831215143 | 83 | 135 | 4.0 | 11.0 | 0.00 | 0.10 | 0.00 | 23 | 1010.8 |
| 20260831214152 | 82 | 78 | 6.0 | 17.0 | 0.00 | 0.10 | 0.00 | 25 | 1010.9 |
| 20260831213212 | 84 | 93 | 6.0 | 13.0 | 0.00 | 0.10 | 0.00 | 24 | 1010.9 |
| 20260831212153 | 86 | 98 | 7.0 | 10.0 | 0.00 | 0.10 | 0.00 | 21 | 1011.1 |
| 20260831211156 | 86 | 5 | 4.0 | 13.0 | 0.00 | 0.10 | 0.00 | 22 | 1011.2 |
| 20260831210201 | 86 | 113 | 2.0 | 10.0 | 0.00 | 0.10 | 0.00 | 21 | 1011.2 |
| 20260831205158 | 85 | 123 | 2.0 | 13.0 | 0.00 | 0.10 | 0.00 | 22 | 1011.4 |
| 20260831204211 | 86 | 40 | 5.0 | 12.0 | 0.00 | 0.10 | 0.00 | 24 | 1011.8 |
| 20260831203151 | 86 | 68 | 4.0 | 11.0 | 0.00 | 0.10 | 0.00 | 24 | 1011.8 |
| 20260831202155 | 86 | 101 | 8.0 | 13.0 | 0.00 | 0.10 | 0.00 | 24 | 1011.8 |
| 20260831201157 | 84 | 136 | 2.0 | 15.0 | 0.00 | 0.10 | 0.00 | 25 | 1012.2 |
| 20260831200143 | 83 | 90 | 3.0 | 9.0 | 0.00 | 0.10 | 0.00 | 25 | 1012.2 |
| 20260831195147 | 82 | 103 | 3.0 | 7.0 | 0.00 | 0.10 | 0.00 | 27 | 1012.4 |
| 20260831194151 | 81 | 67 | 2.0 | 8.0 | 0.00 | 0.10 | 0.00 | 26 | 1012.4 |
| 20260831193156 | 81 | 80 | 5.0 | 10.0 | 0.00 | 0.10 | 0.00 | 26 | 1012.4 |
| 20260831192159 | 81 | 74 | 3.0 | 9.0 | 0.00 | 0.10 | 0.00 | 27 | 1012.5 |
| 20260831191206 | 82 | 128 | 4.0 | 8.0 | 0.00 | 0.10 | 0.00 | 25 | 1012.8 |
| 20260831190152 | 82 | 94 | 3.0 | 10.0 | 0.00 | 0.10 | 0.00 | 26 | 1012.8 |
| 20260831185156 | 82 | 96 | 5.0 | 9.0 | 0.00 | 0.10 | 0.00 | 26 | 1013.0 |
| 20260831184159 | 81 | 70 | 5.0 | 10.0 | 0.00 | 0.10 | 0.00 | 26 | 1013.0 |
| 20260831183203 | 81 | 69 | 3.0 | 7.0 | 0.00 | 0.10 | 0.00 | 27 | 1013.0 |
| 20260831182148 | 80 | 42 | 3.0 | 6.0 | 0.00 | 0.10 | 0.00 | 27 | 1013.1 |
| 20260831181150 | 79 | 24 | 4.0 | 8.0 | 0.00 | 0.10 | 0.00 | 28 | 1013.3 |
| 20260831180154 | 79 | 44 | 3.0 | 7.0 | 0.00 | 0.10 | 0.00 | 28 | 1013.3 |
| 20260831175202 | 79 | 17 | 5.0 | 8.0 | 0.00 | 0.10 | 0.00 | 28 | 1013.3 |
| 20260831174221 | 79 | 52 | 3.0 | 8.0 | 0.00 | 0.10 | 0.00 | 29 | 1013.4 |
| 20260831173147 | 79 | 69 | 3.0 | 7.0 | 0.00 | 0.10 | 0.00 | 31 | 1013.4 |
| 20260831172152 | 78 | 74 | 2.0 | 7.0 | 0.00 | 0.10 | 0.00 | 31 | 1013.5 |
| 20260831171213 | 78 | 118 | 2.0 | 3.0 | 0.00 | 0.10 | 0.00 | 29 | 1013.5 |
| 20260831170157 | 79 | 118 | 0.0 | 3.0 | 0.00 | 0.10 | 0.00 | 28 | 1013.5 |
| 20260831165220 | 79 | 118 | 0.0 | 5.0 | 0.00 | 0.10 | 0.00 | 26 | 1013.5 |
| 20260831164201 | 79 | 203 | 1.0 | 6.0 | 0.00 | 0.10 | 0.00 | 27 | 1013.4 |
| 20260831163154 | 78 | 205 | 0.0 | 3.0 | 0.00 | 0.10 | 0.00 | 27 | 1013.4 |
| 20260831162156 | 77 | 205 | 1.0 | 5.0 | 0.00 | 0.10 | 0.00 | 31 | 1013.2 |
| 20260831161218 | 77 | 204 | 1.0 | 5.0 | 0.00 | 0.10 | 0.00 | 28 | 1013.2 |
| 20260831160148 | 77 | 201 | 3.0 | 6.0 | 0.00 | 0.10 | 0.00 | 30 | 1013.2 |
| 20260831155152 | 76 | 249 | 1.0 | 6.0 | 0.00 | 0.10 | 0.00 | 30 | 1013.1 |
| 20260831154216 | 75 | 241 | 3.0 | 7.0 | 0.00 | 0.10 | 0.00 | 32 | 1013.1 |
| 20260831153145 | 75 | 188 | 5.0 | 8.0 | 0.00 | 0.10 | 0.00 | 33 | 1013.1 |
| 20260831152151 | 74 | 221 | 6.0 | 10.0 | 0.00 | 0.10 | 0.00 | 34 | 1013.0 |
| 20260831151159 | 73 | 259 | 4.0 | 7.0 | 0.00 | 0.10 | 0.00 | 37 | 1013.0 |
| 20260831150201 | 72 | 223 | 3.0 | 8.0 | 0.00 | 0.10 | 0.00 | 38 | 1013.0 |
| 20260831145202 | 72 | 239 | 4.0 | 11.0 | 0.00 | 0.10 | 0.00 | 37 | 1013.0 |
| 20260831144210 | 72 | 242 | 6.0 | 11.0 | 0.00 | 0.10 | 0.00 | 38 | 1012.9 |